map of CAI home
CAI - Airport
Location
City:  Cairo, Al Qahirah (Cairo), Egypt
Name:Cairo International Airport
ICAO:HECA
IATA:CAI

Details
Type:Airport (Aerodrome, Airfield)
Use:Public/Civil, International (customs port of entry)
Latitude:3007'19"N (30.121944)
Longitude:3124'20"E (31.405556)
Datum:WGS 1984
Elevation:382 ft (116 m)
Variation:4.42E (WMM2015 magnetic declination)
0.09 annual change
Runways:3
Longest:13120 × 197 ft (3999 × 60 m), paved

Time
Time Zone:UTC+2
Local Time:

Weather
METAR:HECA 180700Z 22010KT 9999 BKN025 16/12 Q1019 NOSIG
TAF:HECA 172300Z 1800/1906 25011KT 6000 SCT030 PROB30
TEMPO 1802/1806 VRB03KT 4000 BR

Related Locations
Nearby:
Farthest:RVV: 11997 mi / 19307 km
Raivavae, Tubuai Islands, Austral Islands, PF

Find:

   beyond  
but within

Other Information
Maps:
NOTAMs:
Links:
Sources:

  
flag of Egypt
flag of Al Qahirah (Cairo)
  

Airport Diagram

Airport diagram for CAI

Larger airport diagram (OBSOLETE) from NGA

Sectional Chart

Flight Planning
at skyvector.com

Satellite Image

Google Maps Satellite view

 

Copyright © 2004-2018 Karl L. Swartz. All rights reserved.
The Great Circle Mapper name and logo are trademarks of the Great Circle Mapper.
All other trademarks mentioned herein belong to their respective owners.
Please see credits for attibutions and further copyright information.

  Follow gcmap on Facebook Follow gcmap on Twitter Follow gcmap on Google+ GCmap on LinkedIn

hCard Microformat

Geo Microformat